CAPE
36 7 52 14 22 13 6 2 3 1 0 2 5 51 11 28 3 6 24 18 188 8 0 1 4 124 39 2 96 28 198 544 553 1192 1491 1255 1035 1605 1131 1285 1792 1920 2331 2406 2130 1875 1936 2183 2114 2007 1784 1785 1863 1711 1624 1470 1641 1555 1448 1357 1309 1226 1174 1109 1032 961 1026 1017 983 874 755 612 435 309 238 265 288 268 170 298 354 348 297 21 0 0 0
7 16 10 7 5 7 2 0 1 4 0 0 0 0 0 0 6 8 9 249 184 13 4 290 360 838 330 189 47 70 9 187 152 100 1086 1160 1243 1395 1315 2133 2438 2321 2352 2413 2168 1929 1847 2176 2047 1830 1693 1587 1736 1708 1741 1616 1550 1508 1405 1348 1273 1168 1120 1067 1041 1020 1094 1087 1039 894 766 643 481 340 292 302 327 272 270 108 318 339 324 296 298 221 0
2 20 9 4 7 4 4 1 0 0 0 0 0 0 1 1 0 6 21 59 187 0 112 136 526 807 844 140 26 18 97 41 150 190 196 342 418 497 837 1461 2031 2380 2418 2331 2166 1976 2024 2211 2023 1779 1600 1584 1693 1624 1589 1481 1452 1416 1417 1380 1267 1115 1174 1123 1031 1030 1116 1137 1037 871 750 663 541 392 358 379 382 389 328 344 378 346 343 241 0 0 23
4 21 54 6 13 8 4 11 11 7 0 2 4 4 24 4 0 1 5 1 4 0 191 76 28 418 446 56 122 137 57 30 221 142 80 192 397 586 739 1389 2113 2199 2270 2155 2041 2061 2217 2034 1850 1721 1674 1762 1521 1516 1450 1411 1440 1424 1434 1398 1292 1164 1140 1091 1077 1053 1096 1141 1027 913 837 728 648 484 449 388 413 362 303 432 478 393 342 297 267 243 103
29 96 7 29 9 37 26 8 3 0 0 0 0 0 0 0 0 0 1 1 5 6 186 41 4 21 42 37 0 5 92 47 42 40 99 74 233 692 529 1216 1541 1983 1801 1777 2102 2219 2255 1990 1794 1754 1604 1536 1473 1418 1358 1306 1351 1401 1450 1449 1295 1170 1157 1156 1133 1067 1093 1150 1045 999 969 898 780 587 432 389 360 271 328 464 441 350 268 225 215 64 0
9 32 359 64 12 10 6 5 4 0 0 0 13 10 0 0 0 0 0 0 25 8 18 30 26 11 12 49 71 12 146 282 254 97 78 122 199 559 497 1021 1876 1666 1662 1704 2065 2192 2003 1964 1932 1670 1598 1508 1395 1337 1302 1311 1360 1402 1399 1295 1223 1185 1193 1176 1144 1109 1129 1077 1040 1015 1011 954 838 646 472 392 316 315 332 317 270 245 241 250 210 178 103
12 64 10 28 39 89 20 44 2 0 0 0 9 2 1 6 0 0 0 4 6 26 14 6 17 30 1 0 0 1 0 210 377 296 110 44 568 584 1141 1251 1325 1403 1403 1612 2278 2067 1888 1734 1593 1565 1530 1441 1419 1318 1262 1303 1313 1294 1237 1140 1096 1181 1211 1185 1219 1151 1074 1022 970 948 920 785 629 472 366 353 344 390 362 322 326 325 310 226 190 41 0
3 36 73 12 57 104 202 316 405 223 0 15 28 17 7 55 16 2 0 0 4 3 1 0 5 0 1 0 0 5 32 117 560 333 112 34 116 682 718 1321 1282 1466 1851 2247 2349 2177 1874 1700 1506 1566 1456 1325 1315 1324 1287 1263 1268 1224 1192 1182 1106 1139 1219 1192 1180 1105 1059 1069 960 900 781 622 424 344 368 412 392 431 417 400 432 396 330 265 172 141 114
7 2 4 6 64 18 67 206 246 86 0 5 19 11 3 1 2 0 0 0 0 0 0 0 0 0 0 0 0 108 16 14 44 180 66 85 31 554 1178 1498 1516 1896 2478 2409 2354 1985 1843 1668 1624 1463 1377 1278 1214 1174 1186 1237 1190 1106 1077 1038 1069 1142 1194 1162 1156 1118 1070 1074 935 892 768 649 494 435 429 393 326 410 460 443 359 301 169 154 175 68 128
5 4 2 12 11 14 18 789 806 618 176 862 772 99 53 5 0 0 1 0 0 0 0 0 0 7 2 1 0 15 6 0 0 0 2 56 50 412 1495 1653 1825 1827 2510 2344 2042 1860 1718 1509 1494 1431 1341 1320 1226 1175 1101 1107 1074 982 1076 1147 1171 1167 1170 1151 1134 1126 1115 1091 942 913 842 764 603 457 436 416 419 463 403 162 204 227 181 110 98 175 118
4 2 8 0 1 1 31 459 704 580 424 339 204 7 0 12 2 0 0 0 0 0 0 0 11 27 2 0 0 329 1949 1421 8 0 0 0 52 1083 1716 1554 1644 2572 2274 2110 1928 1685 1618 1585 1492 1310 1215 1230 1214 1204 1080 991 922 863 978 1099 1145 1179 1149 1133 1133 1118 1101 955 673 650 716 627 465 405 388 475 424 431 442 322 203 148 117 147 185 155 71
5 12 4 2 3 0 37 177 374 392 306 186 154 8 0 30 19 0 0 0 0 0 0 9 11 5 0 0 294 2384 2528 964 920 433 47 32 483 1411 1852 1728 2007 2422 2155 2062 1879 1742 1644 1621 1532 1319 1267 1196 1135 1072 912 883 880 834 935 1097 1156 1134 1127 1087 1075 1044 942 589 434 337 208 376 374 418 439 469 441 438 420 387 224 200 137 84 129 172 125
1 5 4 4 2 1 109 202 132 186 170 161 20 0 630 881 945 743 764 73 0 1 11 10 0 0 0 466 1514 2197 1423 1441 699 584 525 274 349 1322 1851 1865 2135 2149 2046 1953 1833 1698 1560 1391 1363 1286 1207 1149 1069 976 914 736 753 770 966 1138 1216 1177 1133 1114 1112 1056 773 760 552 461 476 490 527 517 522 564 509 479 426 379 340 294 259 235 86 142 120
9 4 9 9 0 0 75 215 247 226 176 47 9 753 838 1162 860 852 550 682 971 0 0 2 0 1175 1746 1742 1769 1376 1816 2070 1986 1172 945 776 1001 1480 1714 1876 2077 2040 2015 1876 1719 1592 1512 1386 1329 1248 1242 1116 1022 955 819 699 781 837 1000 1133 1154 1147 1172 1163 1080 879 809 778 604 609 583 521 580 621 535 519 510 495 426 378 386 308 178 126 115 147 94
25 6 3 6 2 138 151 464 145 172 379 468 560 1193 1064 593 820 756 578 998 1050 1313 22 12 431 1758 2380 2298 1926 1577 1792 2191 2126 1803 1448 1610 1744 1743 1807 2001 1906 1860 1828 1759 1672 1521 1448 1442 1392 1222 1011 921 823 783 776 821 892 941 1045 1150 1159 1114 1093 1046 927 862 845 748 706 660 624 677 661 558 526 504 507 492 457 452 441 388 92 38 78 61 54
14 10 8 2 4 19 617 405 54 576 681 1174 1454 1289 885 676 953 629 285 955 1560 1700 743 16 1617 2004 2276 2346 1711 1541 1712 2152 2268 2042 2175 1975 1923 1887 1835 1834 1884 1702 1653 1510 1438 1498 1399 1367 1247 1088 1035 938 917 853 829 817 865 956 1027 1012 1066 1065 1016 988 929 792 771 724 647 668 646 584 550 515 492 470 482 448 445 448 314 208 89 234 2 0 0
132 8 10 12 27 376 802 468 647 922 415 441 732 658 671 936 1063 1128 1151 1003 1843 2120 627 187 1310 1304 1334 1706 1980 1908 1992 1947 1773 2156 2074 2097 1960 1787 1740 1748 1782 1712 1561 1459 1378 1334 1270 1286 1226 1163 1294 1183 943 840 897 938 846 926 943 952 944 963 997 968 902 782 693 660 694 651 587 556 529 492 489 496 487 450 412 391 338 270 200 42 8 0 0
105 78 71 70 590 813 755 545 706 736 549 521 365 252 768 907 1207 1293 1346 1353 1605 1701 1513 1445 1160 875 796 1623 1674 1502 1631 1919 1828 2130 1904 1757 1858 1748 1669 1654 1686 1778 1513 1476 1297 1399 1252 1179 1093 1074 1092 1121 1096 917 790 819 852 878 866 870 960 968 949 918 864 805 721 731 714 633 607 535 468 442 498 496 430 369 353 337 258 72 34 26 11 2 0
20 94 78 33 632 761 553 756 558 561 659 230 94 435 309 455 370 814 1018 1768 1780 1740 1391 987 710 1183 1294 1551 1856 1725 1680 1777 1892 1741 1710 1444 1529 1744 1660 1643 1518 1640 1501 1347 1450 1389 1414 1299 1202 1143 1057 1010 1039 963 872 796 731 693 722 781 831 816 778 747 693 714 770 814 734 645 574 467 356 316 348 372 300 280 230 213 118 83 71 15 0 0 0
64 11 156 452 642 596 832 616 648 514 727 619 746 327 378 44 345 342 1028 1412 1713 1624 1725 1688 1395 1233 1590 1856 1817 1557 1451 1480 1478 1480 1161 1054 1276 1559 1590 1493 1644 1712 1598 1478 1332 1274 1242 1213 1199 1183 1166 1085 992 910 899 844 714 667 686 744 791 802 790 850 854 820 812 765 728 675 494 427 289 250 229 255 232 236 241 216 81 62 38 34 2 0 0
5 8 330 329 45 563 520 545 530 696 502 532 416 30 86 392 17 358 204 751 1170 1261 1698 1715 1758 1500 1371 1275 1394 1394 1588 1373 1069 923 852 798 1107 1473 1518 1620 1613 1477 1486 1687 1628 1311 1307 1234 1163 996 986 1000 930 878 870 786 637 659 747 778 808 842 843 841 935 922 881 845 802 666 543 397 328 279 275 224 223 253 169 6 2 0 0 0 0 0 0
0 0 125 526 30 2 154 486 384 434 352 92 28 440 629 596 558 459 527 116 160 581 992 1498 1268 1432 1181 1344 1239 1210 1344 1404 1123 900 836 650 820 1329 1471 1687 1387 1604 1578 1614 1474 1434 1265 1092 1009 958 1011 988 856 683 708 647 659 693 776 817 818 874 879 919 940 979 881 793 768 750 681 563 434 357 278 24 96 183 196 135 116 88 0 6 0 0 0
5 113 219 275 123 36 304 62 409 612 714 839 633 230 270 589 574 599 569 464 250 166 543 931 1482 1438 1481 1456 1563 1539 1581 1315 1066 806 1103 722 781 1259 1592 1544 1272 1225 1314 1461 1574 1367 1249 1086 1011 946 949 940 830 844 626 608 626 685 790 814 851 847 890 936 1013 1017 943 750 652 556 520 422 403 447 366 193 0 154 167 154 130 0 0 0 0 1 0
320 41 260 448 470 524 317 426 516 536 659 696 688 533 596 348 279 396 514 477 436 369 460 314 965 1598 1537 1618 1552 1564 1504 1341 1406 969 1040 1042 1420 1594 1615 1679 1386 1536 1604 1542 1530 1506 1465 1425 990 957 914 885 924 923 841 758 730 641 742 803 847 880 888 932 994 951 867 723 541 417 343 229 93 0 37 7 0 0 173 173 5 6 10 9 8 4 0
386 383 521 554 775 644 657 596 550 508 568 522 420 482 413 297 339 377 471 440 344 486 485 613 541 781 1442 1697 1784 1743 1569 1370 1332 1269 1610 1688 1707 1764 1776 1730 1772 1696 1629 1679 1610 1485 1380 1312 1159 984 1126 956 932 873 716 681 710 699 653 650 660 753 880 1002 998 882 735 646 525 398 276 165 10 81 118 120 96 0 5 18 4 0 0 0 0 0 0
439 620 489 550 667 621 695 454 466 375 708 647 659 613 467 229 226 345 353 274 416 596 494 506 730 988 878 1270 1509 1442 1292 1215 1282 1328 1245 1404 1430 1444 1455 1698 1768 1513 1592 1592 1569 1527 1470 1426 1282 1045 1002 992 928 730 588 607 512 473 495 501 525 651 708 815 779 757 755 654 546 408 235 200 196 231 232 167 12 18 44 23 44 4 52 40 8 0 0
357 460 492 672 617 661 674 581 607 643 584 506 137 100 91 49 357 344 335 518 577 666 877 1046 968 1053 1336 1165 1104 1250 1350 1356 1306 1238 1251 1231 1196 1208 1397 1510 1436 1519 1494 1595 1657 1631 1572 1482 1410 1330 962 914 887 684 550 530 543 537 607 607 545 471 456 556 630 670 705 622 493 340 221 229 259 262 284 262 48 23 0 0 1 15 19 0 0 1 1
278 344 512 528 679 779 810 657 391 442 410 258 52 27 26 163 334 349 200 218 368 465 655 933 1043 1105 1022 904 1066 1198 1394 1174 1186 1163 1162 1142 991 956 1191 1555 1484 1396 1477 1507 1498 1493 1468 1372 1277 1056 862 872 768 737 657 553 543 637 730 731 523 479 445 522 567 603 580 472 374 281 256 222 204 249 267 221 15 29 7 0 0 0 0 0 1 2 5
37 285 514 542 572 707 712 428 426 290 254 155 62 431 234 359 477 281 60 44 277 289 451 472 583 762 824 927 1014 1064 1052 993 971 1067 1088 1006 946 1015 1225 1229 1370 1270 1346 1356 1275 1159 1069 1015 924 969 936 825 720 828 821 720 671 584 626 680 503 308 466 488 378 441 572 526 437 355 300 87 68 147 274 220 12 16 99 86 29 19 8 0 0 0 1
212 296 400 394 687 555 442 384 292 249 185 181 236 206 432 884 157 15 58 26 98 422 355 451 573 689 769 999 961 1000 1038 1002 870 859 775 934 904 797 886 967 1060 993 1060 1056 985 935 910 883 866 896 918 838 772 762 826 890 918 964 876 642 550 387 280 117 142 118 93 120 120 133 154 145 92 238 247 197 155 124 77 80 92 67 58 12 0 0 0
231 358 436 694 771 650 534 428 258 352 305 101 84 87 63 24 96 114 89 294 278 385 458 416 376 611 773 762 849 1022 1083 1001 893 872 928 951 922 932 790 863 790 743 709 791 796 808 826 856 876 910 905 875 803 688 618 676 629 483 303 148 179 173 122 186 225 78 127 141 164 182 140 159 168 236 29 163 164 168 78 11 19 25 13 0 0 0 0
230 411 383 250 272 183 210 86 36 86 109 304 68 51 11 4 11 25 0 0 9 46 530 604 439 694 720 608 716 870 807 936 844 928 871 1002 953 850 930 802 721 706 643 725 682 600 653 700 717 746 760 692 658 642 748 805 691 444 84 120 33 96 137 137 113 126 138 150 147 178 196 281 304 140 188 178 168 124 86 66 10 10 0 0 2 4 1
18 87 196 124 208 311 105 165 196 33 74 28 148 0 0 4 2 1 0 2 2 107 258 442 326 377 522 586 527 680 588 714 698 654 646 789 814 829 882 876 799 726 704 590 563 616 733 629 523 503 537 603 535 553 578 516 395 351 292 189 99 112 148 147 130 100 125 168 297 302 296 242 166 227 206 185 154 48 20 32 24 7 0 0 0 0 0
93 22 332 203 170 98 102 29 112 13 11 0 0 0 0 0 0 0 0 0 0 0 0 1 137 201 393 291 309 353 377 379 532 552 538 568 596 607 606 641 777 668 650 521 476 340 457 620 534 541 532 445 401 404 421 403 381 274 192 168 207 212 170 135 97 81 122 171 166 200 276 198 190 138 115 142 20 30 2 1 0 0 0 0 0 0 0
268 189 93 102 76 56 51 199 74 29 6 3 0 2 6 6 0 0 0 0 0 0 22 16 47 206 245 286 293 357 661 739 649 690 630 647 479 625 573 546 510 546 497 503 398 383 284 366 592 656 657 572 546 170 226 164 190 193 184 168 169 151 163 147 52 0 54 97 123 146 142 153 148 120 87 33 40 21 10 4 5 4 1 0 0 0 0
224 183 163 43 100 65 53 2 0 2 29 19 1 1 1 11 8 7 0 0 0 0 3 62 130 160 215 236 266 274 280 435 486 561 530 505 473 423 375 367 464 448 543 451 408 400 443 350 243 327 368 384 424 393 278 184 146 98 61 0 0 0 0 0 0 2 32 41 65 95 120 130 129 101 72 29 6 0 1 3 3 1 0 0 0 0 0
233 307 231 192 240 232 171 117 49 78 84 63 51 1 2 0 13 2 3 2 0 0 0 9 6 7 9 2 1 3 38 112 184 246 266 348 364 403 313 368 278 346 327 348 443 301 248 197 186 141 34 33 40 196 148 70 40 14 0 0 0 0 0 2 8 0 0 33 29 49 60 102 78 30 30 2 5 9 9 6 0 1 0 0 0 0 0
116 262 284 310 246 225 154 120 108 145 76 26 16 25 120 74 11 12 0 1 0 0 0 0 0 0 3 1 0 0 0 0 4 15 39 84 143 203 175 112 201 230 255 322 263 255 268 249 221 16 10 89 29 29 6 30 30 2 0 0 0 0 0 1 8 4 0 3 4 6 30 42 37 12 5 7 5 5 2 3 2 0 0 0 0 0 0
295 283 402 339 182 153 161 87 54 32 34 33 14 2 21 56 30 6 1 4 0 0 0 0 0 2 3 3 1 1 0 0 0 0 0 0 0 85 141 94 132 240 271 222 249 115 221 214 201 187 105 25 35 28 23 12 3 2 1 0 0 0 0 0 5 6 4 8 4 0 4 10 9 6 10 11 9 1 5 1 0 0 0 0 0 2 4
54 41 55 72 66 108 125 60 38 49 20 19 30 34 57 32 5 4 4 4 1 0 1 1 0 0 0 0 0 3 0 0 0 0 0 0 0 1 40 58 45 14 0 2 60 2 0 0 0 0 0 0 0 0 0 14 29 0 119 18 15 9 0 0 1 5 5 0 0 1 2 4 4 3 3 3 0 3 1 0 0 0 0 0 3 9 13
64 132 19 14 6 34 11 51 58 60 30 19 17 14 40 8 1 4 3 8 7 6 0 0 0 0 0 0 0 0 0 0 0 0 0 0 0 0 5 18 0 0 0 0 0 0 0 0 0 0 28 0 0 0 0 0 2 4 0 0 0 1 3 0 0 0 0 0 0 0 2 2 4 6 6 2 0 0 0 0 0 0 0 5 8 13 19
158 143 23 32 10 25 48 42 52 45 46 39 45 52 30 9 2 6 10 4 2 2 1 0 0 0 0 0 0 0 0 0 1 2 0 0 0 0 0 4 0 0 0 0 0 0 0 0 0 0 0 0 0 0 0 0 0 0 0 0 0 0 0 0 0 0 0 0 0 0 1 2 1 0 0 0 0 0 0 0 2 1 0 0 1 8 10
72 71 69 18 25 9 14 29 26 36 38 36 50 62 27 13 5 1 0 0 0 0 0 2 14 6 20 0 0 0 1 2 0 0 3 4 2 2 0 0 0 0 0 0 0 0 0 0 0 0 0 0 0 0 0 0 0 0 0 2 0 0 0 0 0 0 1 1 0 0 0 0 0 0 0 0 0 0 2 2 6 8 9 8 5 4 2
136 18 51 4 44 8 10 6 2 0 0 0 0 5 23 39 25 2 1 1 0 0 0 1 1 0 1 3 8 3 4 3 6 4 1 8 9 1 0 0 0 0 0 0 0 0 1 0 0 0 0 0 0 0 0 1 3 0 3 0 0 0 1 0 0 0 0 1 1 0 0 0 0 0 0 0 0 1 2 4 7 8 6 7 8 4 1
97 160 13 14 143 0 0 1 1 0 0 0 0 1 5 18 2 0 2 0 0 0 0 5 5 4 4 3 4 3 6 5 7 2 5 5 2 5 0 0 0 0 0 0 0 0 0 0 0 0 0 0 0 0 0 3 2 2 17 10 0 0 4 2 3 1 1 2 3 1 0 0 0 0 0 2 4 5 6 6 7 7 7 10 10 11 7
110 14 8 3 19 271 14 21 0 0 3 0 0 0 0 6 6 0 0 2 1 2 7 5 3 9 6 7 2 3 4 6 7 12 4 6 2 0 2 0 0 0 0 0 0 0 0 0 0 0 0 0 0 0 0 0 1 0 0 0 0 0 0 0 0 0 0 0 1 3 4 2 1 2 4 4 3 1 3 3 2 5 10 8 2 3 4
0 0 9 10 34 22 89 10 20 3 3 0 1 0 0 0 5 3 2 4 0 1 5 10 2 4 6 2 5 6 6 3 4 5 4 1 0 0 0 0 0 0 0 0 0 0 0 0 0 0 0 0 0 1 0 0 0 0 1 2 0 0 0 2 2 1 1 1 0 0 0 0 0 0 0 0 0 0 0 0 0 3 6 4 2 5 7
52 11 0 0 0 0 8 54 68 126 25 2 11 5 4 3 7 4 1 1 0 0 0 3 4 3 2 10 17 3 8 12 12 8 3 0 1 0 0 0 0 0 0 0 0 0 0 0 0 0 0 0 10 9 5 2 1 4 2 1 2 2 1 0 0 0 0 0 1 0 1 2 0 0 0 0 0 0 0 0 2 12 18 12 9 14 14
11 52 13 0 0 0 0 0 0 0 0 4 6 1 1 4 0 0 0 0 4 10 2 3 2 5 1 6 7 6 1 3 14 4 2 1 2 1 0 0 0 0 0 0 0 0 0 0 0 0 0 0 1 2 6 4 3 5 5 6 3 4 5 11 12 11 9 6 4 3 3 2 2 0 0 1 1 1 0 0 4 11 13 14 18 16 15
10 1 16 7 8 6 0 0 0 0 3 7 2 0 0 0 0 0 0 0 0 0 9 5 1 2 2 2 4 6 6 5 4 5 8 4 11 0 2 1 0 0 0 0 0 0 0 0 0 0 2 3 4 7 12 6 5 3 2 1 2 4 7 7 7 9 12 12 10 9 9 12 6 1 2 0 1 1 0 1 4 6 8 9 10 10 12
2 3 0 0 11 12 1 0 0 0 0 0 0 0 0 0 0 0 0 0 0 0 0 0 0 0 0 0 0 1 4 6 10 5 10 3 1 2 16 2 0 0 0 0 0 0 0 0 0 0 0 0 0 2 3 2 1 0 1 1 3 3 1 2 3 3 8 12 10 9 10 9 4 1 2 2 1 1 1 1 0 0 0 2 5 3 2
0 0 0 0 0 0 1 5 2 0 0 0 0 0 0 0 0 0 0 0 0 2 2 0 0 0 1 1 1 6 4 0 0 2 0 5 5 23 12 2 9 2 2 9 1 0 0 0 0 0 0 0 0 0 0 2 2 3 1 0 1 0 1 1 4 10 7 5 11 10 8 5 1 0 0 1 0 0 0 1 0 0 0 0 0 0 1
Wind_Speed
nan nan nan nan nan nan nan nan nan nan nan nan nan nan nan nan nan nan nan nan 20 nan nan nan nan 28 nan nan nan nan 31 33 38 41 46 43 38 39 41 42 39 34 30 28 29 30 31 30 29 28 26 25 26 27 29 29 28 28 31 34 34 32 30 31 33 34 34 33 32 34 33 32 30 29 27 23 23 25 25 27 27 28 29 nan nan nan nan
nan nan nan nan nan nan nan nan nan nan nan nan nan nan nan nan nan nan nan 23 18 nan nan 24 25 38 40 40 nan nan nan 38 37 nan 33 36 38 39 42 41 37 33 31 30 31 32 31 29 27 26 26 24 26 29 32 31 29 30 33 35 34 32 29 30 32 34 34 33 33 33 33 32 30 27 25 23 24 26 26 27 27 28 29 31 32 34 nan
nan nan nan nan nan nan nan nan nan nan nan nan nan nan nan nan nan nan nan nan 29 nan 25 26 31 37 42 36 nan nan nan nan 36 34 34 35 36 34 37 37 35 35 34 33 32 30 27 27 26 26 26 26 28 31 31 30 30 32 34 34 34 31 29 31 33 33 33 33 33 32 32 31 29 27 25 25 26 27 28 27 28 30 32 33 nan nan nan
nan nan nan nan nan nan nan nan nan nan nan nan nan nan nan nan nan nan nan nan nan nan 17 nan nan 29 24 nan 30 30 nan nan 31 33 nan 35 35 35 35 36 37 36 36 33 30 26 26 26 26 27 27 29 31 30 30 30 32 34 33 33 33 32 30 31 33 33 32 33 33 32 32 30 28 27 26 27 28 28 29 31 31 32 33 33 35 37 38
nan nan nan nan nan nan nan nan nan nan nan nan nan nan nan nan nan nan nan nan nan nan 22 nan nan nan nan nan nan nan nan nan nan nan nan nan 34 37 32 31 34 36 34 29 28 29 31 29 26 26 29 31 31 30 31 33 34 33 32 32 33 32 30 30 30 31 32 32 31 31 29 28 27 28 27 28 31 31 33 33 32 32 34 34 35 nan nan
nan nan 16 nan nan nan nan nan nan nan nan nan nan nan nan nan nan nan nan nan nan nan nan nan nan nan nan nan nan nan 24 23 24 nan nan 29 32 33 30 30 36 33 29 29 31 32 31 30 28 28 31 33 33 32 33 35 33 32 31 30 31 31 29 29 30 30 31 30 30 29 28 27 27 28 29 30 32 34 34 34 33 33 34 33 33 34 35
nan nan nan nan nan nan nan nan nan nan nan nan nan nan nan nan nan nan nan nan nan nan nan nan nan nan nan nan nan nan nan 29 29 28 29 nan 32 31 29 31 32 28 26 26 33 32 30 28 29 31 32 32 32 31 32 33 32 31 29 29 29 29 28 28 29 29 29 29 30 29 28 29 30 30 32 34 34 34 34 34 34 33 33 32 31 nan nan
nan nan nan nan nan 19 21 18 20 18 nan nan nan nan nan nan nan nan nan nan nan nan nan nan nan nan nan nan nan nan nan 17 19 15 17 nan 23 24 24 28 32 29 26 27 29 30 30 29 29 32 33 34 34 32 33 33 31 30 29 29 28 29 29 29 29 30 30 30 30 30 30 32 33 33 34 35 35 34 34 33 32 33 32 32 32 31 32
nan nan nan nan nan nan nan 13 17 nan nan nan nan nan nan nan nan nan nan nan nan nan nan nan nan nan nan nan nan 22 nan nan nan 14 nan nan nan 21 28 33 32 32 29 27 30 31 29 28 30 32 33 34 34 34 33 31 31 29 29 29 30 30 29 30 29 29 30 32 31 32 33 34 33 33 34 34 33 33 34 32 32 33 32 32 32 nan 33
nan nan nan nan nan nan nan 24 30 31 25 30 28 nan nan nan nan nan nan nan nan nan nan nan nan nan nan nan nan nan nan nan nan nan nan nan nan 26 37 38 34 25 24 27 28 29 28 27 31 34 34 35 36 35 34 32 32 30 30 31 32 31 30 30 31 32 33 33 34 33 33 32 31 32 32 31 32 32 33 33 32 31 32 33 nan 33 33
nan nan nan nan nan nan nan 23 29 31 29 26 25 nan nan nan nan nan nan nan nan nan nan nan nan nan nan nan nan 43 35 26 nan nan nan nan nan 34 37 36 30 30 28 28 28 27 28 28 32 37 36 37 36 35 35 35 34 33 32 31 33 32 30 31 31 32 33 32 32 32 33 31 31 32 31 31 32 31 31 32 33 32 33 33 34 34 nan
nan nan nan nan nan nan nan 23 29 31 28 22 21 nan nan nan nan nan nan nan nan nan nan nan nan nan nan nan 43 43 34 29 36 39 nan nan 38 36 35 32 34 34 33 30 28 28 28 32 35 37 37 35 35 35 35 36 35 34 33 32 32 32 33 33 31 30 30 32 31 32 32 31 31 31 31 32 32 31 31 31 32 33 34 nan 37 37 40
nan nan nan nan nan nan 15 17 23 28 23 23 nan nan 24 29 29 32 28 nan nan nan nan nan nan nan nan 37 43 37 33 32 35 32 32 35 36 31 29 33 38 33 31 29 29 31 31 33 34 36 36 36 35 35 36 35 34 35 34 33 33 32 31 30 28 30 30 29 30 30 30 31 31 31 31 32 33 33 34 34 35 34 36 36 nan 40 41
nan nan nan nan nan nan nan 15 23 23 15 nan nan 24 19 22 24 26 26 32 29 nan nan nan nan 32 41 43 40 37 34 38 34 29 28 30 29 26 27 35 32 32 33 32 32 33 34 33 34 35 35 35 34 34 34 32 33 34 33 32 31 30 28 27 27 27 27 28 29 30 32 34 34 34 35 36 36 38 37 39 39 40 40 42 44 43 nan
nan nan nan nan nan 10 14 23 28 23 21 21 21 18 19 20 24 22 26 28 33 33 nan nan 25 38 41 40 38 35 35 33 31 30 31 33 30 28 32 30 31 31 31 31 31 32 32 32 32 34 35 35 34 33 32 31 31 31 32 30 29 28 27 26 25 25 27 30 30 31 34 36 38 38 38 39 40 41 40 41 43 45 nan nan nan nan nan
nan nan nan nan nan nan 12 19 nan 20 24 24 16 15 17 21 21 24 22 29 32 31 25 nan 36 40 38 34 36 34 32 30 29 32 34 34 31 35 30 32 34 33 32 30 29 30 31 31 31 33 33 33 32 31 30 30 28 28 30 27 27 26 25 27 28 28 30 32 33 34 37 38 39 40 41 41 42 41 42 44 45 45 nan 42 nan nan nan
8 nan nan nan nan 7 10 15 12 13 16 20 23 20 22 22 22 22 24 25 28 30 32 31 34 35 35 35 35 34 31 31 30 33 35 33 35 35 32 31 35 31 32 31 30 31 31 31 31 32 33 32 33 29 29 30 28 27 26 26 26 28 28 29 30 31 32 32 34 35 37 40 41 41 42 42 42 42 45 44 43 43 42 nan nan nan nan
7 nan nan nan 12 10 5 10 14 18 23 23 27 29 24 21 19 22 20 23 25 31 35 34 32 29 30 31 29 30 29 31 34 35 34 35 37 36 34 33 31 30 33 34 32 33 31 31 31 30 30 31 32 30 31 30 29 27 27 27 27 27 28 31 33 35 36 36 38 39 41 41 43 43 44 42 42 44 44 43 42 nan nan nan nan nan nan
nan nan nan nan 8 10 7 10 14 20 25 24 nan 21 28 35 27 19 20 24 30 34 32 30 29 29 29 28 27 26 25 31 39 46 51 51 42 37 34 33 29 33 33 31 33 33 31 29 29 28 28 29 30 31 31 29 28 26 26 27 26 27 31 33 36 37 39 38 39 40 42 42 42 42 42 42 42 43 42 41 40 nan nan nan nan nan nan
nan nan 5 6 9 12 12 13 13 17 22 18 16 16 20 nan 32 28 28 27 30 31 31 31 29 27 25 26 33 30 34 34 40 43 41 36 31 30 34 30 27 34 33 32 32 31 29 27 26 27 28 31 31 32 30 28 28 29 29 29 31 31 34 36 37 38 38 43 43 41 41 42 42 42 41 41 41 40 39 39 nan nan nan nan nan nan nan
nan nan 20 22 nan 24 23 23 22 20 27 27 25 nan nan 22 nan 36 34 36 36 33 31 30 29 27 23 26 24 26 32 39 41 39 32 22 18 23 30 31 35 35 33 34 33 30 29 26 27 28 29 30 29 30 28 28 28 31 30 32 34 36 36 37 38 39 39 41 41 42 42 40 39 39 40 39 39 38 37 nan nan nan nan nan nan nan nan
nan nan 14 22 nan nan 18 22 19 20 26 nan nan 23 20 25 32 39 43 42 37 34 34 33 31 27 26 24 26 27 30 31 38 35 25 14 16 24 30 37 40 41 39 36 36 36 35 32 29 29 32 33 30 29 29 29 30 33 33 34 36 37 37 37 39 40 41 41 41 41 40 39 38 35 34 nan nan 38 37 37 41 nan nan nan nan nan nan
nan 14 13 16 15 nan 6 nan 8 14 22 19 13 17 26 27 26 33 42 43 41 40 38 36 35 34 33 32 30 29 31 37 41 34 23 20 21 29 33 39 41 40 34 30 34 36 39 40 36 32 31 32 34 33 31 32 36 38 37 36 36 35 37 36 39 41 42 41 41 40 38 37 36 37 36 35 nan 36 36 38 39 nan nan nan nan nan nan
7 nan 11 10 9 11 9 9 11 16 18 21 23 24 25 25 29 34 35 39 43 42 40 40 40 38 36 34 33 35 36 37 39 35 29 25 28 33 34 38 40 39 35 32 33 34 34 38 38 35 31 35 38 35 35 33 39 40 38 36 35 36 36 38 42 42 42 41 40 38 37 36 nan nan nan nan nan nan 34 40 nan nan nan nan nan nan nan
9 7 7 7 6 6 9 6 10 16 19 19 19 23 26 27 29 30 34 36 38 42 43 43 44 42 41 40 38 37 38 41 44 45 46 45 43 41 39 38 41 40 38 35 34 33 31 31 33 35 33 35 34 32 35 36 38 38 36 35 36 37 38 42 42 43 42 40 38 37 38 37 nan nan 38 38 nan nan nan nan nan nan nan nan nan nan nan
11 10 8 7 7 8 8 3 8 13 17 20 20 20 22 23 25 25 32 35 38 39 41 41 42 43 44 43 41 40 40 41 42 42 43 43 43 43 42 42 42 43 41 36 35 35 34 31 32 32 31 30 29 30 36 38 34 35 35 35 36 41 42 43 43 42 40 38 37 37 38 37 36 36 37 38 nan nan nan nan nan nan nan nan nan nan nan
11 12 13 13 11 13 12 10 11 13 15 17 18 nan nan nan 24 24 24 28 32 37 39 40 42 41 42 44 45 42 40 40 43 44 43 43 42 41 40 40 39 39 39 37 35 36 36 34 32 31 29 27 28 30 35 37 37 37 37 39 41 48 49 43 42 41 40 38 38 39 39 38 37 37 39 39 nan nan nan nan nan nan nan nan nan nan nan
15 13 15 16 18 19 18 17 14 13 13 16 nan nan nan 23 24 22 18 23 27 32 34 37 37 38 40 42 41 40 37 40 43 42 42 41 41 40 38 39 38 38 39 39 38 39 36 33 33 33 32 32 34 34 36 40 43 42 43 42 44 44 43 44 42 41 40 39 39 40 40 39 39 38 39 38 nan nan nan nan nan nan nan nan nan nan nan
nan 8 13 17 20 21 18 16 14 16 16 15 nan 18 20 22 20 15 nan nan 21 23 29 34 35 37 38 39 41 42 42 41 42 43 43 43 41 41 42 41 41 41 41 41 42 41 39 38 37 37 38 37 39 42 42 41 41 42 43 44 44 43 42 41 42 43 42 41 40 40 41 nan nan 38 37 36 nan nan nan nan nan nan nan nan nan nan nan
22 8 10 16 22 21 19 18 18 19 18 17 19 19 17 19 23 nan nan nan nan 23 25 27 30 31 32 34 37 41 42 43 43 43 45 44 44 43 42 43 41 42 41 42 42 41 41 40 39 41 41 41 42 44 46 47 45 45 45 44 43 43 41 41 43 44 nan 41 41 43 41 39 nan 37 36 36 36 36 nan nan nan nan nan nan nan nan nan
27 16 12 18 22 22 21 22 23 23 23 24 nan nan nan nan nan 22 nan 23 20 22 24 24 24 25 27 30 31 32 34 36 39 43 45 46 45 45 43 42 41 41 40 40 41 40 41 41 41 42 44 45 46 48 48 48 46 46 45 43 42 42 42 42 42 nan 40 40 42 41 40 39 37 37 nan 36 36 36 nan nan nan nan nan nan nan nan nan
30 29 21 19 19 22 21 nan nan nan 25 24 nan nan nan nan nan nan nan nan nan nan 26 25 25 27 28 28 26 27 28 30 32 35 40 42 46 46 46 44 43 42 39 39 41 39 38 40 43 44 46 45 44 45 44 45 47 48 nan 44 nan nan 41 42 41 42 42 41 41 40 39 37 36 35 35 34 33 33 nan nan nan nan nan nan nan nan nan
nan nan 24 20 17 17 21 23 22 nan nan nan 22 nan nan nan nan nan nan nan nan 29 30 28 26 24 26 24 26 29 30 31 30 29 31 34 37 41 43 43 42 39 38 38 39 38 37 39 42 43 44 44 44 46 47 48 49 48 48 48 nan 46 44 42 42 42 42 41 37 35 35 34 33 32 32 31 32 nan nan nan nan nan nan nan nan nan nan
nan nan 19 26 26 nan 19 nan 26 nan nan nan nan nan nan nan nan nan nan nan nan nan nan nan 27 28 29 26 28 28 31 29 31 32 32 32 32 34 37 40 40 39 38 39 39 37 37 40 45 44 46 46 46 47 47 45 44 44 46 46 47 46 44 42 nan nan 38 36 34 34 33 31 31 31 31 30 nan nan nan nan nan nan nan nan nan nan nan
30 27 nan 28 nan nan nan 25 nan nan nan nan nan nan nan nan nan nan nan nan nan nan nan nan nan 30 31 31 34 33 35 35 33 34 34 33 34 33 34 36 38 41 40 39 39 40 41 44 49 48 48 47 47 45 42 40 37 38 42 44 44 43 41 40 nan nan nan nan 34 33 33 31 30 30 nan nan nan nan nan nan nan nan nan nan nan nan nan
25 24 27 nan 25 nan nan nan nan nan nan nan nan nan nan nan nan nan nan nan nan nan nan nan 32 32 33 34 34 34 33 34 35 34 35 34 33 32 32 33 36 38 40 40 40 40 39 41 46 44 41 41 41 38 38 36 35 nan nan nan nan nan nan nan nan nan nan nan nan nan 33 33 32 31 nan nan nan nan nan nan nan nan nan nan nan nan nan
22 26 26 24 24 23 21 21 nan nan nan nan nan nan nan nan nan nan nan nan nan nan nan nan nan nan nan nan nan nan nan 35 34 34 33 32 31 28 29 30 33 34 34 35 37 34 37 40 40 37 nan nan nan 34 34 nan nan nan nan nan nan nan nan nan nan nan nan nan nan nan nan 36 nan nan nan nan nan nan nan nan nan nan nan nan nan nan nan
21 21 22 21 21 20 18 17 18 16 nan nan nan nan 26 nan nan nan nan nan nan nan nan nan nan nan nan nan nan nan nan nan nan nan nan nan 30 26 27 31 31 29 28 29 33 33 32 33 34 nan nan nan nan nan nan nan nan nan nan nan nan nan nan nan nan nan nan nan nan nan nan nan nan nan nan nan nan nan nan nan nan nan nan nan nan nan nan
21 21 21 22 20 18 18 nan nan nan nan nan nan nan nan nan nan nan nan nan nan nan nan nan nan nan nan nan nan nan nan nan nan nan nan nan nan nan 33 nan 31 32 31 29 30 32 30 29 29 30 30 nan nan nan nan nan nan nan nan nan nan nan nan nan nan nan nan nan nan nan nan nan nan nan nan nan nan nan nan nan nan nan nan nan nan nan nan
nan nan nan nan nan 24 23 nan nan nan nan nan nan nan nan nan nan nan nan nan nan nan nan nan nan nan nan nan nan nan nan nan nan nan nan nan nan nan nan nan nan nan nan nan nan nan nan nan nan nan nan nan nan nan nan nan nan nan 32 nan nan nan nan nan nan nan nan nan nan nan nan nan nan nan nan nan nan nan nan nan nan nan nan nan nan nan nan
nan 17 nan nan nan nan nan nan nan nan nan nan nan nan nan nan nan nan nan nan nan nan nan nan nan nan nan nan nan nan nan nan nan nan nan nan nan nan nan nan nan nan nan nan nan nan nan nan nan nan nan nan nan nan nan nan nan nan nan nan nan nan nan nan nan nan nan nan nan nan nan nan nan nan nan nan nan nan nan nan nan nan nan nan nan nan nan
12 13 nan nan nan nan nan nan nan nan nan nan nan nan nan nan nan nan nan nan nan nan nan nan nan nan nan nan nan nan nan nan nan nan nan nan nan nan nan nan nan nan nan nan nan nan nan nan nan nan nan nan nan nan nan nan nan nan nan nan nan nan nan nan nan nan nan nan nan nan nan nan nan nan nan nan nan nan nan nan nan nan nan nan nan nan nan
nan nan nan nan nan nan nan nan nan nan nan nan nan nan nan nan nan nan nan nan nan nan nan nan nan nan nan nan nan nan nan nan nan nan nan nan nan nan nan nan nan nan nan nan nan nan nan nan nan nan nan nan nan nan nan nan nan nan nan nan nan nan nan nan nan nan nan nan nan nan nan nan nan nan nan nan nan nan nan nan nan nan nan nan nan nan nan
33 nan nan nan nan nan nan nan nan nan nan nan nan nan nan nan nan nan nan nan nan nan nan nan nan nan nan nan nan nan nan nan nan nan nan nan nan nan nan nan nan nan nan nan nan nan nan nan nan nan nan nan nan nan nan nan nan nan nan nan nan nan nan nan nan nan nan nan nan nan nan nan nan nan nan nan nan nan nan nan nan nan nan nan nan nan nan
nan 30 nan nan 18 nan nan nan nan nan nan nan nan nan nan nan nan nan nan nan nan nan nan nan nan nan nan nan nan nan nan nan nan nan nan nan nan nan nan nan nan nan nan nan nan nan nan nan nan nan nan nan nan nan nan nan nan nan nan nan nan nan nan nan nan nan nan nan nan nan nan nan nan nan nan nan nan nan nan nan nan nan nan nan nan nan nan
37 nan nan nan nan 21 nan nan nan nan nan nan nan nan nan nan nan nan nan nan nan nan nan nan nan nan nan nan nan nan nan nan nan nan nan nan nan nan nan nan nan nan nan nan nan nan nan nan nan nan nan nan nan nan nan nan nan nan nan nan nan nan nan nan nan nan nan nan nan nan nan nan nan nan nan nan nan nan nan nan nan nan nan nan nan nan nan
nan nan nan nan nan nan nan nan nan nan nan nan nan nan nan nan nan nan nan nan nan nan nan nan nan nan nan nan nan nan nan nan nan nan nan nan nan nan nan nan nan nan nan nan nan nan nan nan nan nan nan nan nan nan nan nan nan nan nan nan nan nan nan nan nan nan nan nan nan nan nan nan nan nan nan nan nan nan nan nan nan nan nan nan nan nan nan
nan nan nan nan nan nan nan nan nan 30 nan nan nan nan nan nan nan nan nan nan nan nan nan nan nan nan nan nan nan nan nan nan nan nan nan nan nan nan nan nan nan nan nan nan nan nan nan nan nan nan nan nan nan nan nan nan nan nan nan nan nan nan nan nan nan nan nan nan nan nan nan nan nan nan nan nan nan nan nan nan nan nan nan nan nan nan nan
nan nan nan nan nan nan nan nan nan nan nan nan nan nan nan nan nan nan nan nan nan nan nan nan nan nan nan nan nan nan nan nan nan nan nan nan nan nan nan nan nan nan nan nan nan nan nan nan nan nan nan nan nan nan nan nan nan nan nan nan nan nan nan nan nan nan nan nan nan nan nan nan nan nan nan nan nan nan nan nan nan nan nan nan nan nan nan
nan nan nan nan nan nan nan nan nan nan nan nan nan nan nan nan nan nan nan nan nan nan nan nan nan nan nan nan nan nan nan nan nan nan nan nan nan nan nan nan nan nan nan nan nan nan nan nan nan nan nan nan nan nan nan nan nan nan nan nan nan nan nan nan nan nan nan nan nan nan nan nan nan nan nan nan nan nan nan nan nan nan nan nan nan nan nan
nan nan nan nan nan nan nan nan nan nan nan nan nan nan nan nan nan nan nan nan nan nan nan nan nan nan nan nan nan nan nan nan nan nan nan nan nan nan nan nan nan nan nan nan nan nan nan nan nan nan nan nan nan nan nan nan nan nan nan nan nan nan nan nan nan nan nan nan nan nan nan nan nan nan nan nan nan nan nan nan nan nan nan nan nan nan nan
nan nan nan nan nan nan nan nan nan nan nan nan nan nan nan nan nan nan nan nan nan nan nan nan nan nan nan nan nan nan nan nan nan nan nan nan nan nan nan nan nan nan nan nan nan nan nan nan nan nan nan nan nan nan nan nan nan nan nan nan nan nan nan nan nan nan nan nan nan nan nan nan nan nan nan nan nan nan nan nan nan nan nan nan nan nan nan
Wind_Direction
nan nan nan nan nan nan nan nan nan nan nan nan nan nan nan nan nan nan nan nan 213 nan nan nan nan 216 nan nan nan nan 234 239 240 238 239 245 252 254 261 262 267 272 269 267 266 263 259 260 262 264 263 259 261 264 269 272 276 283 283 283 283 282 282 284 284 285 283 282 284 286 287 287 289 292 294 294 289 288 285 285 287 293 293 nan nan nan nan
nan nan nan nan nan nan nan nan nan nan nan nan nan nan nan nan nan nan nan 170 210 nan nan 188 209 215 217 220 nan nan nan 235 247 nan 256 255 250 251 252 256 262 265 265 262 261 259 258 264 267 265 263 263 263 266 267 274 278 281 282 282 281 280 282 282 282 283 282 281 283 285 286 287 288 290 292 290 286 285 287 289 290 291 292 291 294 293 nan
nan nan nan nan nan nan nan nan nan nan nan nan nan nan nan nan nan nan nan nan 205 nan 192 196 198 214 204 222 nan nan nan nan 237 244 251 253 260 261 258 259 263 261 255 252 253 256 258 265 266 262 259 256 260 265 271 279 279 279 280 280 278 278 278 277 279 279 279 280 281 282 284 284 287 289 290 286 285 286 287 290 287 283 285 288 nan nan nan
nan nan nan nan nan nan nan nan nan nan nan nan nan nan nan nan nan nan nan nan nan nan 198 nan nan 213 212 nan 217 225 nan nan 231 231 nan 250 250 255 259 258 262 261 251 250 254 256 256 259 262 260 258 257 260 266 276 277 275 275 276 276 276 277 276 278 280 281 279 280 281 282 285 287 288 288 287 284 285 286 284 281 278 285 286 281 285 289 290
nan nan nan nan nan nan nan nan nan nan nan nan nan nan nan nan nan nan nan nan nan nan 217 nan nan nan nan nan nan nan nan nan nan nan nan nan 251 253 253 255 255 254 254 255 254 251 251 251 256 256 255 255 260 264 267 270 269 273 273 272 275 276 276 278 279 278 281 284 284 286 287 288 286 285 287 284 286 282 283 282 284 288 287 287 286 nan nan
nan nan 186 nan nan nan nan nan nan nan nan nan nan nan nan nan nan nan nan nan nan nan nan nan nan nan nan nan nan nan 196 215 234 nan nan 241 247 255 264 260 251 253 250 248 252 252 251 251 251 251 251 253 255 259 263 265 269 269 272 273 275 276 278 280 278 279 284 287 287 287 288 287 284 282 284 283 282 282 286 288 291 290 288 290 289 292 296
nan nan nan nan nan nan nan nan nan nan nan nan nan nan nan nan nan nan nan nan nan nan nan nan nan nan nan nan nan nan nan 212 218 222 226 nan 249 249 248 257 260 253 250 246 249 248 251 255 252 250 251 253 258 259 261 264 265 267 270 273 275 279 283 282 280 281 286 285 285 285 286 285 279 280 281 282 284 285 288 291 292 292 291 291 292 nan nan
nan nan nan nan nan 177 155 160 166 161 nan nan nan nan nan nan nan nan nan nan nan nan nan nan nan nan nan nan nan nan nan 215 227 232 228 nan 236 257 263 259 259 258 248 250 252 249 248 251 249 251 250 251 256 257 257 262 265 269 273 277 282 285 287 285 284 284 284 280 281 281 281 279 280 282 282 284 285 285 285 286 287 289 292 291 295 297 295
nan nan nan nan nan nan nan 161 181 nan nan nan nan nan nan nan nan nan nan nan nan nan nan nan nan nan nan nan nan 226 nan nan nan 253 nan nan nan 245 264 259 253 241 245 244 247 249 249 249 249 248 252 254 256 256 258 264 268 271 276 281 286 291 289 288 285 284 282 281 279 280 280 280 283 284 284 286 284 282 285 287 289 291 294 295 293 nan 301
nan nan nan nan nan nan nan 191 186 174 178 197 203 nan nan nan nan nan nan nan nan nan nan nan nan nan nan nan nan nan nan nan nan nan nan nan nan 256 264 264 259 258 249 246 249 254 253 248 248 248 252 254 254 254 258 264 270 273 279 282 287 291 290 290 289 287 286 285 283 286 284 285 286 283 281 280 280 282 287 290 291 292 294 297 nan 301 304
nan nan nan nan nan nan nan 167 180 174 171 183 200 nan nan nan nan nan nan nan nan nan nan nan nan nan nan nan nan 237 229 220 nan nan nan nan nan 255 264 268 268 263 260 259 255 254 256 253 250 252 257 260 259 258 260 266 271 277 284 286 289 293 290 287 286 283 283 284 286 287 284 285 284 283 283 283 284 285 287 291 296 299 301 300 302 304 nan
nan nan nan nan nan nan nan 175 175 174 166 180 193 nan nan nan nan nan nan nan nan nan nan nan nan nan nan nan 232 236 232 216 237 240 nan nan 242 254 261 261 258 259 258 257 260 256 253 252 249 256 260 261 263 262 263 268 273 282 287 288 287 284 284 283 283 283 281 279 278 281 284 282 280 281 280 284 288 289 292 296 298 301 302 nan 306 306 304
nan nan nan nan nan nan 189 190 168 168 162 180 nan nan 212 202 204 208 210 nan nan nan nan nan nan nan nan 226 243 240 237 227 236 239 239 242 249 243 251 252 248 253 259 259 255 253 247 249 250 254 257 259 261 263 265 269 277 284 285 286 286 285 282 281 280 276 276 281 283 281 280 281 280 279 281 285 288 290 293 295 299 299 299 298 nan 298 298
nan nan nan nan nan nan nan 187 168 153 167 nan nan 209 196 193 198 202 207 209 199 nan nan nan nan 222 227 236 235 236 231 231 230 245 247 251 254 259 247 245 249 248 249 250 253 251 249 252 254 256 259 260 262 264 268 273 277 281 282 284 283 284 282 281 276 276 279 279 279 277 277 279 281 282 281 284 287 289 290 292 295 292 290 294 297 294 nan
nan nan nan nan nan 247 214 190 173 184 193 203 194 189 195 199 196 197 203 209 203 191 nan nan 221 231 231 230 234 229 231 234 236 240 247 246 248 251 257 251 248 250 249 251 251 249 251 254 255 259 262 264 266 269 273 276 274 274 273 274 272 271 268 271 273 277 278 281 280 278 280 283 284 285 285 286 287 287 289 290 290 290 nan nan nan nan nan
nan nan nan nan nan nan 223 205 nan 184 182 181 181 177 192 198 204 202 201 207 203 186 184 nan 227 231 233 229 230 227 226 231 233 236 241 247 249 251 258 253 246 246 247 249 250 252 252 255 256 261 265 267 269 272 275 274 276 274 274 275 274 273 270 267 265 265 268 275 276 281 284 284 286 288 289 289 290 291 288 288 289 290 nan 293 nan nan nan
256 nan nan nan nan 271 222 204 180 191 189 165 165 180 190 195 205 205 199 205 205 192 193 211 227 228 223 226 224 221 225 229 227 235 238 245 248 252 251 253 250 246 244 250 252 254 254 258 254 258 260 263 267 272 267 267 269 272 276 277 274 270 271 272 271 273 272 275 276 276 283 287 288 289 291 293 292 289 289 288 288 289 291 nan nan nan nan
275 nan nan nan 281 287 216 207 196 193 205 185 181 174 180 190 197 200 198 204 204 208 208 218 219 220 222 226 224 231 212 221 220 227 241 246 246 245 247 246 251 247 249 246 251 255 256 259 257 256 262 264 265 260 262 265 268 271 274 276 277 280 280 279 280 282 280 280 280 281 286 287 289 291 293 295 292 290 292 292 293 nan nan nan nan nan nan
nan nan nan nan 265 270 234 220 215 217 220 204 nan 188 181 175 180 184 189 197 206 205 212 218 219 220 221 220 226 222 224 223 220 219 220 217 222 237 238 244 241 243 246 247 250 254 255 260 259 259 260 259 260 258 260 265 268 274 276 280 278 277 283 285 283 283 285 285 283 284 288 288 290 291 293 293 292 295 296 297 298 nan nan nan nan nan nan
nan nan 259 206 252 247 233 224 219 226 239 227 200 208 207 nan 157 176 187 195 207 210 212 219 224 220 209 214 216 216 224 223 223 225 232 233 198 213 233 246 244 248 246 247 247 249 251 254 256 259 257 255 259 257 261 264 266 267 270 277 276 277 277 277 282 285 286 290 291 289 292 293 294 294 294 294 295 297 299 298 nan nan nan nan nan nan nan
nan nan 218 207 nan 223 217 214 208 207 220 216 195 nan nan 176 nan 176 191 191 197 203 214 218 226 230 224 218 220 217 224 227 227 227 223 216 190 205 234 236 234 241 246 252 252 249 250 248 249 251 252 254 262 259 260 265 268 272 276 280 278 279 281 282 285 288 289 294 294 295 295 294 295 297 297 295 294 293 294 nan nan nan nan nan nan nan nan
nan nan 196 211 nan nan 204 216 202 203 219 nan nan 176 199 195 193 185 180 185 196 201 207 212 225 232 235 233 227 219 222 230 237 238 235 214 220 229 237 234 238 239 241 250 255 252 250 250 252 252 250 252 257 263 267 271 274 274 279 280 283 287 285 285 288 290 291 294 296 297 297 297 297 295 295 nan nan 291 294 296 295 nan nan nan nan nan nan
nan 188 213 229 262 nan 239 nan 189 221 228 230 216 198 196 195 197 196 193 184 190 192 202 208 221 225 227 232 236 234 226 226 232 239 243 232 227 240 239 241 241 238 238 252 264 262 255 247 246 248 248 252 256 264 267 273 275 275 281 281 282 286 287 288 290 291 292 294 296 296 296 295 295 294 294 286 nan 297 296 294 296 nan nan nan nan nan nan
211 nan 216 248 248 245 239 217 216 216 214 219 224 223 217 208 204 200 202 198 196 195 195 200 209 218 226 232 232 231 231 233 241 248 253 257 249 240 239 240 241 242 247 252 257 258 251 248 245 242 243 249 259 266 267 270 277 281 284 283 283 283 285 285 288 290 293 294 295 294 294 294 nan nan nan nan nan nan 283 299 nan nan nan nan nan nan nan
202 211 236 223 237 252 246 209 217 218 215 220 223 227 223 217 216 213 209 208 205 204 203 201 202 207 218 223 226 229 230 229 228 232 238 240 242 242 238 237 240 242 248 252 255 258 261 258 252 249 246 251 263 270 274 276 278 282 283 282 283 284 284 285 287 288 290 290 291 291 292 292 nan nan 293 292 nan nan nan nan nan nan nan nan nan nan nan
221 233 235 229 231 241 270 283 229 224 222 220 217 215 217 221 212 216 220 213 208 210 213 209 208 208 211 219 224 226 228 229 225 229 234 238 241 242 240 239 241 243 247 250 253 254 256 258 260 255 255 258 263 266 266 268 272 276 282 285 284 281 282 285 286 286 285 285 286 287 289 290 290 291 290 289 nan nan nan nan nan nan nan nan nan nan nan
231 231 225 245 250 250 242 237 235 231 234 233 224 nan nan nan 209 209 208 220 219 215 214 213 217 213 216 219 222 225 229 231 230 230 232 234 236 240 241 244 247 249 253 254 255 257 261 265 264 265 265 266 267 269 273 277 277 277 278 278 276 276 285 283 282 283 282 282 284 286 288 289 288 287 284 286 nan nan nan nan nan nan nan nan nan nan nan
230 216 236 238 248 250 243 242 230 228 237 238 nan nan nan 222 218 209 206 220 220 216 216 220 219 220 221 221 224 228 230 234 236 239 239 239 239 240 244 249 254 254 254 254 254 254 257 261 264 267 269 267 267 271 276 278 281 281 281 282 278 276 278 278 277 277 278 280 281 285 287 287 287 285 286 288 nan nan nan nan nan nan nan nan nan nan nan
nan 213 221 232 242 245 239 237 236 233 231 234 nan 221 219 218 232 233 nan nan 222 222 219 217 215 219 220 225 227 228 230 234 239 241 243 243 243 246 246 248 252 252 255 259 259 261 261 263 266 266 266 267 269 267 267 270 274 278 276 273 274 277 278 278 278 277 276 278 279 282 284 nan nan 287 287 287 nan nan nan nan nan nan nan nan nan nan nan
286 287 226 230 245 244 240 238 236 236 234 229 220 216 223 230 226 nan nan nan nan 219 226 222 216 216 219 224 225 228 231 231 235 241 244 245 246 247 250 251 252 256 258 260 262 265 269 270 271 271 271 270 269 267 268 265 263 263 264 265 268 271 272 275 277 276 nan 278 278 281 284 285 nan 287 287 287 286 285 nan nan nan nan nan nan nan nan nan
282 277 257 230 226 232 232 229 230 232 230 230 nan nan nan nan nan 237 nan 239 236 236 231 232 228 225 224 224 224 230 232 235 235 238 244 245 247 249 251 254 256 258 260 264 267 268 269 271 271 270 268 265 266 267 270 274 276 276 274 273 273 274 275 276 273 nan 274 280 282 282 281 281 281 282 nan 282 281 280 nan nan nan nan nan nan nan nan nan
278 287 270 245 238 232 235 nan nan nan 235 227 nan nan nan nan nan nan nan nan nan nan 246 240 234 231 232 233 232 236 236 237 240 241 243 246 247 249 251 252 253 256 259 260 262 263 265 265 263 265 268 269 271 272 274 274 272 272 nan 272 nan nan 277 278 271 270 272 278 282 281 280 279 278 280 281 282 283 282 nan nan nan nan nan nan nan nan nan
nan nan 261 278 261 248 236 239 239 nan nan nan 237 nan nan nan nan nan nan nan nan 244 249 248 247 246 243 238 239 239 240 240 242 245 251 251 249 250 251 251 253 255 255 256 259 259 258 261 263 264 267 271 274 276 276 276 276 275 274 273 nan 275 279 281 278 275 276 280 281 279 279 280 279 281 283 283 282 nan nan nan nan nan nan nan nan nan nan
nan nan 283 270 267 nan 264 nan 235 nan nan nan nan nan nan nan nan nan nan nan nan nan nan nan 248 249 252 247 245 241 243 241 242 243 245 248 249 248 249 248 248 251 253 255 256 255 254 260 265 266 269 273 276 276 277 277 275 274 275 275 274 273 275 277 nan nan 276 279 280 280 280 280 282 283 282 282 nan nan nan nan nan nan nan nan nan nan nan
260 259 nan 267 nan nan nan 274 nan nan nan nan nan nan nan nan nan nan nan nan nan nan nan nan nan 247 249 247 247 245 243 243 244 246 247 246 246 246 245 245 244 248 253 255 257 258 259 260 265 268 271 271 270 270 272 274 273 273 274 272 273 275 277 277 nan nan nan nan 281 280 280 281 279 276 nan nan nan nan nan nan nan nan nan nan nan nan nan
263 266 268 nan 262 nan nan nan nan nan nan nan nan nan nan nan nan nan nan nan nan nan nan nan 245 249 250 251 250 249 249 248 245 243 245 249 248 246 246 246 248 251 255 257 256 257 262 264 269 270 267 270 273 276 277 275 275 nan nan nan nan nan nan nan nan nan nan nan nan nan 278 279 278 275 nan nan nan nan nan nan nan nan nan nan nan nan nan
260 259 256 257 257 257 261 264 nan nan nan nan nan nan nan nan nan nan nan nan nan nan nan nan nan nan nan nan nan nan nan 246 246 247 247 248 250 248 248 248 250 252 254 256 256 251 253 258 269 271 nan nan nan 274 276 nan nan nan nan nan nan nan nan nan nan nan nan nan nan nan nan 275 nan nan nan nan nan nan nan nan nan nan nan nan nan nan nan
260 264 265 261 256 254 256 253 247 246 nan nan nan nan 241 nan nan nan nan nan nan nan nan nan nan nan nan nan nan nan nan nan nan nan nan nan 242 243 249 247 247 253 254 255 258 257 254 253 259 nan nan nan nan nan nan nan nan nan nan nan nan nan nan nan nan nan nan nan nan nan nan nan nan nan nan nan nan nan nan nan nan nan nan nan nan nan nan
253 251 255 259 255 253 250 nan nan nan nan nan nan nan nan nan nan nan nan nan nan nan nan nan nan nan nan nan nan nan nan nan nan nan nan nan nan nan 247 nan 248 246 249 250 260 259 261 258 256 256 255 nan nan nan nan nan nan nan nan nan nan nan nan nan nan nan nan nan nan nan nan nan nan nan nan nan nan nan nan nan nan nan nan nan nan nan nan
nan nan nan nan nan 257 258 nan nan nan nan nan nan nan nan nan nan nan nan nan nan nan nan nan nan nan nan nan nan nan nan nan nan nan nan nan nan nan nan nan nan nan nan nan nan nan nan nan nan nan nan nan nan nan nan nan nan nan 260 nan nan nan nan nan nan nan nan nan nan nan nan nan nan nan nan nan nan nan nan nan nan nan nan nan nan nan nan
nan 236 nan nan nan nan nan nan nan nan nan nan nan nan nan nan nan nan nan nan nan nan nan nan nan nan nan nan nan nan nan nan nan nan nan nan nan nan nan nan nan nan nan nan nan nan nan nan nan nan nan nan nan nan nan nan nan nan nan nan nan nan nan nan nan nan nan nan nan nan nan nan nan nan nan nan nan nan nan nan nan nan nan nan nan nan nan
233 247 nan nan nan nan nan nan nan nan nan nan nan nan nan nan nan nan nan nan nan nan nan nan nan nan nan nan nan nan nan nan nan nan nan nan nan nan nan nan nan nan nan nan nan nan nan nan nan nan nan nan nan nan nan nan nan nan nan nan nan nan nan nan nan nan nan nan nan nan nan nan nan nan nan nan nan nan nan nan nan nan nan nan nan nan nan
nan nan nan nan nan nan nan nan nan nan nan nan nan nan nan nan nan nan nan nan nan nan nan nan nan nan nan nan nan nan nan nan nan nan nan nan nan nan nan nan nan nan nan nan nan nan nan nan nan nan nan nan nan nan nan nan nan nan nan nan nan nan nan nan nan nan nan nan nan nan nan nan nan nan nan nan nan nan nan nan nan nan nan nan nan nan nan
233 nan nan nan nan nan nan nan nan nan nan nan nan nan nan nan nan nan nan nan nan nan nan nan nan nan nan nan nan nan nan nan nan nan nan nan nan nan nan nan nan nan nan nan nan nan nan nan nan nan nan nan nan nan nan nan nan nan nan nan nan nan nan nan nan nan nan nan nan nan nan nan nan nan nan nan nan nan nan nan nan nan nan nan nan nan nan
nan 235 nan nan 220 nan nan nan nan nan nan nan nan nan nan nan nan nan nan nan nan nan nan nan nan nan nan nan nan nan nan nan nan nan nan nan nan nan nan nan nan nan nan nan nan nan nan nan nan nan nan nan nan nan nan nan nan nan nan nan nan nan nan nan nan nan nan nan nan nan nan nan nan nan nan nan nan nan nan nan nan nan nan nan nan nan nan
235 nan nan nan nan 232 nan nan nan nan nan nan nan nan nan nan nan nan nan nan nan nan nan nan nan nan nan nan nan nan nan nan nan nan nan nan nan nan nan nan nan nan nan nan nan nan nan nan nan nan nan nan nan nan nan nan nan nan nan nan nan nan nan nan nan nan nan nan nan nan nan nan nan nan nan nan nan nan nan nan nan nan nan nan nan nan nan
nan nan nan nan nan nan nan nan nan nan nan nan nan nan nan nan nan nan nan nan nan nan nan nan nan nan nan nan nan nan nan nan nan nan nan nan nan nan nan nan nan nan nan nan nan nan nan nan nan nan nan nan nan nan nan nan nan nan nan nan nan nan nan nan nan nan nan nan nan nan nan nan nan nan nan nan nan nan nan nan nan nan nan nan nan nan nan
nan nan nan nan nan nan nan nan nan 238 nan nan nan nan nan nan nan nan nan nan nan nan nan nan nan nan nan nan nan nan nan nan nan nan nan nan nan nan nan nan nan nan nan nan nan nan nan nan nan nan nan nan nan nan nan nan nan nan nan nan nan nan nan nan nan nan nan nan nan nan nan nan nan nan nan nan nan nan nan nan nan nan nan nan nan nan nan
nan nan nan nan nan nan nan nan nan nan nan nan nan nan nan nan nan nan nan nan nan nan nan nan nan nan nan nan nan nan nan nan nan nan nan nan nan nan nan nan nan nan nan nan nan nan nan nan nan nan nan nan nan nan nan nan nan nan nan nan nan nan nan nan nan nan nan nan nan nan nan nan nan nan nan nan nan nan nan nan nan nan nan nan nan nan nan
nan nan nan nan nan nan nan nan nan nan nan nan nan nan nan nan nan nan nan nan nan nan nan nan nan nan nan nan nan nan nan nan nan nan nan nan nan nan nan nan nan nan nan nan nan nan nan nan nan nan nan nan nan nan nan nan nan nan nan nan nan nan nan nan nan nan nan nan nan nan nan nan nan nan nan nan nan nan nan nan nan nan nan nan nan nan nan
nan nan nan nan nan nan nan nan nan nan nan nan nan nan nan nan nan nan nan nan nan nan nan nan nan nan nan nan nan nan nan nan nan nan nan nan nan nan nan nan nan nan nan nan nan nan nan nan nan nan nan nan nan nan nan nan nan nan nan nan nan nan nan nan nan nan nan nan nan nan nan nan nan nan nan nan nan nan nan nan nan nan nan nan nan nan nan
nan nan nan nan nan nan nan nan nan nan nan nan nan nan nan nan nan nan nan nan nan nan nan nan nan nan nan nan nan nan nan nan nan nan nan nan nan nan nan nan nan nan nan nan nan nan nan nan nan nan nan nan nan nan nan nan nan nan nan nan nan nan nan nan nan nan nan nan nan nan nan nan nan nan nan nan nan nan nan nan nan nan nan nan nan nan nan